Weather History for Moffett NAS, CA

Change the Weather History Date:

Wednesday, March 27, 2013

  Actual Average Record
Temperature  
Mean Temperature 59 °F 57 °F  
Max Temperature 67 °F 66 °F 82 °F (1969)
Min Temperature 50 °F 48 °F 38 °F (1972)
Degree Days  
Heating Degree Days 6    
Month to date heating degree days 228  
Since 1 July heating degree days 1905  
Cooling Degree Days 0    
Month to date cooling degree days 0  
Year to date cooling degree days 0  
Growing Degree Days 8 (Base 50)    
Moisture  
Dew Point 48 °F    
Average Humidity 70    
Maximum Humidity 83    
Minimum Humidity 56    
Precipitation  
Precipitation 0.00 in 0.06 in 0.94 in (1979)
Month to date precipitation 0.70 2.04  
Year to date precipitation 1.42 7.86  
Since 1 July precipitation 9.19 12.91  
Sea Level Pressure  
Sea Level Pressure 30.00 in    
Wind  
Wind Speed 4 mph (North)    
Max Wind Speed 14 mph    
Max Gust Speed 30 mph    
Visibility 10 miles    
Events      
T = Trace of Precipitation, MM = Missing Value Source: NWS Daily Summary

Daily Weather History Graph

Daily Weather History Graph

Search for Another Location

Airport:

Trip Planner

Search our weather history database for the weather conditions in past years. The results will help you decide how hot, cold, wet, or windy it might be!

Date:

Astronomy

Mar. 27, 2013 Rise Set
Actual Time 7:00 AM PDT 7:26 PM PDT
Civil Twilight 6:34 AM PDT 7:52 PM PDT
Nautical Twilight 6:03 AM PDT 8:23 PM PDT
Astronomical Twilight 5:32 AM PDT 8:55 PM PDT
Moon 8:14 PM PDT (3/27) 6:56 AM PDT (3/27)
Length of Visible Light 13h 18m
Length of Day
12h 26m
Full, 100% of the Moon is Illuminated
Mar 27
Full
Apr 2
Last Quarter
Apr 10
New
Apr 18
First Quarter
Apr 25
Full

Hourly Weather History & Observations

Time (PDT) Temp. Dew Point Humidity Pressure Visibility Wind Dir Wind Speed Gust Speed Precip Events Conditions
12:56 AM 53.1 °F 46.0 °F 77% 30.01 in 10.0 mi Calm Calm - N/A   Scattered Clouds
1:56 AM 51.1 °F 45.0 °F 80% 30.00 in 10.0 mi Calm Calm - N/A   Clear
2:56 AM 52.0 °F 46.0 °F 80% 29.99 in 10.0 mi Calm Calm - N/A   Overcast
3:56 AM 51.1 °F 45.0 °F 80% 29.99 in 10.0 mi Calm Calm - N/A   Partly Cloudy
4:56 AM 52.0 °F 46.0 °F 80% 29.99 in 10.0 mi Calm Calm - N/A   Overcast
5:56 AM 51.1 °F 45.0 °F 80% 29.99 in 10.0 mi Calm Calm - N/A   Overcast
6:22 AM 51.8 °F 44.6 °F 76% 29.97 in 10.0 mi Calm Calm - N/A   Overcast
6:46 AM 51.8 °F 44.6 °F 76% 29.97 in 10.0 mi Calm Calm - N/A   Mostly Cloudy
6:56 AM 51.1 °F 45.0 °F 80% 29.99 in 10.0 mi Calm Calm - N/A   Mostly Cloudy
7:56 AM 51.1 °F 45.0 °F 80% 30.00 in 10.0 mi ESE 5.8 mph - N/A   Clear
8:56 AM 54.0 °F 46.0 °F 75% 30.00 in 10.0 mi SE 4.6 mph - N/A   Mostly Cloudy
9:56 AM 57.9 °F 46.0 °F 65% 30.01 in 10.0 mi SE 4.6 mph - N/A   Mostly Cloudy
10:56 AM 63.0 °F 48.9 °F 60% 30.00 in 10.0 mi East 4.6 mph - N/A   Mostly Cloudy
11:56 AM 64.9 °F 48.9 °F 56% 30.00 in 10.0 mi Calm Calm - N/A   Mostly Cloudy
12:56 PM 66.9 °F 50.0 °F 54% 29.99 in 10.0 mi North 6.9 mph - N/A   Overcast
1:56 PM 64.0 °F 50.0 °F 60% 29.99 in 10.0 mi NNW 13.8 mph - N/A   Overcast
2:56 PM 63.0 °F 52.0 °F 67% 29.99 in 10.0 mi North 12.7 mph - N/A   Overcast
3:56 PM 64.9 °F 53.1 °F 65% 29.98 in 10.0 mi North 11.5 mph - N/A   Overcast
4:56 PM 66.0 °F 52.0 °F 60% 29.98 in 10.0 mi North 6.9 mph - N/A   Overcast
5:56 PM 66.0 °F 51.1 °F 59% 29.98 in 10.0 mi Variable 6.9 mph - N/A   Overcast
6:56 PM 64.0 °F 50.0 °F 60% 29.99 in 10.0 mi SW 5.8 mph - N/A   Mostly Cloudy
7:56 PM 62.1 °F 48.9 °F 62% 30.01 in 10.0 mi WSW 5.8 mph - N/A   Partly Cloudy
8:56 PM 61.0 °F 48.0 °F 62% 30.02 in 10.0 mi WSW 3.5 mph - N/A   Overcast
9:56 PM 57.9 °F 50.0 °F 75% 30.03 in 10.0 mi Calm Calm - N/A   Clear
10:56 PM 57.9 °F 50.0 °F 75% 30.04 in 10.0 mi Calm Calm - N/A   Mostly Cloudy
11:56 PM 59.0 °F 50.0 °F 72% 30.04 in 10.0 mi Calm Calm - N/A   Overcast